Location: La Tine
(46.4708°N, 7.0525°E)
Time: 17:29:11
(UTC+00:00)

GP-B - Pass Details

Date: 18 September 2020
Orbit: 631 x 635 km, 89.8° (Epoch: 29 October)

Event Time Altitude Azimuth Distance (km) Brightness Sun altitude
Rises 18:18:12 0° 357° (N) 2,945 6.7 -7.9°
Reaches altitude 10° 18:20:28 10° 353° (N) 2,031 5.9 -8.3°
Maximum altitude 18:24:50 56° 276° (W) 760 4.0 -9.0°
Drops below altitude 10° 18:29:09 10° 199° (SSW) 2,012 5.8 -9.8°
Sets 18:31:23 0° 195° (SSW) 2,914 6.5 -10.1°
